Temperature
9 8 8 10 11 12 13 13 13 14 15 14 13 13 14 14 15 15 15 15 14 14 14 14 13 13 13 13 13 13 12 12 12 12 12 12 12 12 12 12 12 12 12 12
8 8 10 11 11 11 12 12 13 14 14 14 13 13 13 14 14 15 15 15 14 14 13 13 13 13 12 12 12 12 12 12 12 12 12 12 12 12 12 12 12 12 12 12
7 9 10 10 10 10 11 12 12 13 13 13 12 12 13 13 14 14 15 15 14 13 13 13 12 12 12 12 12 12 12 12 12 12 12 11 11 11 11 11 11 11 11 11
8 10 10 9 10 10 10 12 12 12 11 10 12 10 12 13 13 13 14 14 14 13 12 12 12 12 12 12 12 12 12 12 12 11 11 12 12 11 11 11 11 11 11 11
8 9 9 9 9 10 10 12 12 12 11 10 11 10 11 13 12 13 13 13 13 13 12 12 11 11 11 11 11 11 11 11 11 11 11 11 11 11 11 11 11 11 11 10
8 9 9 9 10 10 10 10 11 11 10 9 10 10 11 12 13 13 13 13 12 12 12 12 11 11 11 11 11 11 11 11 11 11 11 11 11 11 11 11 11 10 10 10
7 8 8 9 8 9 9 8 8 8 8 8 11 11 11 13 13 13 12 12 12 11 11 11 11 10 10 10 10 10 10 10 10 10 10 10 10 10 10 11 10 10 10 10
6 6 8 8 8 7 8 8 8 8 8 9 11 10 11 11 12 12 12 11 11 11 10 10 10 10 10 10 10 10 10 10 10 10 10 9 9 10 10 10 10 10 10 10
5 6 8 8 9 8 7 8 9 9 9 9 10 10 10 10 10 11 11 10 10 10 9 9 9 9 9 9 9 9 10 10 9 9 9 9 9 9 9 9 9 9 9 9
5 5 7 8 8 8 8 8 7 7 8 9 10 10 10 9 9 9 9 9 9 9 8 8 8 8 8 8 9 9 9 9 9 9 9 9 8 9 9 9 9 9 9 9
5 4 5 6 6 6 7 7 7 7 8 8 9 9 9 9 9 9 8 8 8 8 7 7 7 7 8 8 8 8 8 8 8 8 8 8 8 8 8 8 8 8 8 8
5 4 4 5 6 7 7 7 7 6 7 8 8 8 8 8 8 8 8 7 7 7 7 6 6 6 6 7 7 7 7 8 8 8 8 8 8 8 8 8 7 7 8 7
4 3 3 4 5 5 6 6 6 6 6 7 7 7 8 8 7 7 7 6 6 6 6 5 5 5 5 6 6 6 7 7 7 7 7 7 7 7 7 7 7 7 7 7
4 2 3 4 4 4 4 5 6 5 5 6 7 6 7 6 6 6 6 5 5 5 5 4 4 4 5 5 5 6 6 6 6 6 7 7 7 7 7 7 6 6 6 6
2 2 3 4 5 5 5 5 5 5 5 6 7 7 6 6 5 5 5 5 4 4 4 4 3 3 4 4 5 5 5 5 5 6 6 6 6 6 6 6 6 6 6 6
1 1 2 3 5 5 4 5 5 5 6 6 6 6 6 6 5 5 4 4 3 3 3 2 3 3 3 3 4 4 5 5 5 5 5 5 5 5 5 5 5 5 5 5
0 0 2 3 4 4 3 3 4 5 5 5 5 5 5 4 4 4 3 3 3 2 2 2 2 2 2 3 3 4 4 4 4 4 4 5 4 4 4 4 5 5 4 4
-0 0 1 2 2 2 2 3 3 3 3 4 4 4 4 3 3 3 3 3 2 2 1 1 1 2 2 2 3 3 3 3 3 4 4 4 4 4 4 4 4 4 4 3
1 0 1 2 2 2 2 2 2 2 2 2 2 2 3 3 2 2 2 2 1 1 1 1 1 2 2 2 2 3 3 3 3 3 3 3 3 3 3 3 3 3 3 3
0 -0 0 2 2 2 1 1 1 2 1 1 1 1 1 1 1 1 1 1 1 1 0 0 1 1 2 2 2 2 2 2 2 2 2 2 2 2 2 2 2 2 2 2
-1 -0 0 1 1 1 -1 -0 1 1 -0 -0 0 -0 -0 -0 -0 -0 0 -0 -0 -0 -0 -0 0 1 1 1 1 1 1 1 1 1 1 1 1 1 1 1 1 1 1 1
-1 -1 -0 0 1 -0 -2 -1 -1 -2 -1 -1 -1 -1 -1 -1 -1 -1 -1 -1 -1 -1 -1 -1 -0 -0 -0 0 1 1 1 1 1 1 1 1 1 1 1 1 0 0 0 0
-2 -2 -2 -2 -2 -2 -2 -2 -2 -2 -2 -2 -2 -2 -2 -2 -2 -2 -2 -2 -2 -2 -2 -1 -1 -1 -1 -1 -0 0 0 0 0 0 0 0 0 0 -0 -0 -0 -0 -0 -0
-2 -2 -2 -2 -2 -2 -2 -3 -3 -3 -3 -3 -3 -3 -3 -3 -3 -3 -3 -3 -3 -3 -2 -2 -2 -2 -2 -1 -1 -1 -1 -1 -0 -0 -0 -1 -1 -1 -1 -1 -1 -1 -1 -1
-3 -3 -3 -3 -3 -3 -3 -3 -4 -4 -4 -4 -3 -3 -3 -3 -3 -3 -3 -3 -3 -3 -3 -3 -2 -2 -2 -2 -2 -2 -2 -1 -1 -1 -1 -1 -1 -1 -1 -1 -2 -2 -2 -2
-5 -5 -4 -4 -4 -4 -4 -4 -4 -4 -4 -4 -4 -4 -4 -4 -4 -3 -4 -4 -3 -3 -3 -3 -3 -3 -3 -2 -2 -2 -2 -2 -2 -2 -2 -2 -2 -2 -2 -2 -2 -3 -3 -3
Wind_Speed
8 7 12 15 16 11 9 11 11 10 8 9 10 9 7 5 6 7 7 7 7 7 7 7 7 7 8 9 10 11 10 9 8 6 6 5 4 4 4 6 8 7 7 7
7 13 14 11 13 14 14 11 9 5 6 6 7 8 7 7 7 7 8 8 7 8 8 7 7 7 7 8 9 10 10 9 8 6 5 4 5 4 4 5 7 7 6 6
11 7 10 12 12 14 15 12 8 5 3 4 4 6 9 7 7 7 7 7 8 9 9 8 7 7 7 8 8 9 10 10 9 8 7 6 5 4 3 3 3 5 6 6
10 8 9 11 12 11 11 10 8 7 5 4 6 5 8 9 9 9 8 7 7 8 8 8 8 8 8 7 7 8 9 9 9 9 8 9 6 5 4 4 3 4 6 5
6 7 9 11 11 9 5 5 7 8 7 4 7 5 5 9 10 11 9 8 7 7 9 9 9 8 7 7 7 7 8 8 8 8 8 8 6 5 5 5 5 4 4 5
5 4 4 6 6 6 3 3 3 4 4 6 9 7 5 8 11 10 9 8 7 7 7 7 8 8 6 6 7 7 8 8 8 8 8 8 8 7 7 6 5 4 3 3
5 5 4 3 4 5 6 5 4 5 6 7 9 8 5 4 5 8 9 8 7 7 7 7 7 8 8 8 8 7 8 8 8 8 8 7 7 8 8 7 6 5 4 3
5 5 7 5 5 5 8 7 5 5 6 4 7 8 3 2 3 6 6 6 6 6 6 6 6 6 7 9 8 8 8 7 8 8 7 6 7 5 5 5 5 5 4 3
3 4 5 6 4 5 5 7 4 2 2 3 5 4 2 4 4 5 6 6 5 5 6 6 6 5 6 7 7 7 7 7 7 7 6 6 6 6 5 5 5 4 3 3
1 2 4 4 3 4 4 3 2 3 3 4 5 7 6 7 6 5 6 5 5 4 4 5 5 5 5 6 6 6 5 6 6 6 6 6 6 5 5 5 5 5 4 3
1 1 2 4 5 6 4 4 3 3 3 2 3 2 2 6 6 6 5 5 5 4 4 4 4 4 5 5 5 5 5 5 6 6 6 6 6 5 5 5 5 5 4 4
1 1 2 3 1 2 4 5 4 4 3 2 1 1 3 4 5 6 6 5 5 5 4 4 4 5 5 5 4 5 5 5 5 6 6 5 5 5 5 5 4 4 4 4
2 0 2 2 1 1 3 5 5 3 1 2 2 2 1 5 6 6 6 5 5 5 5 5 5 4 4 4 4 5 4 4 4 5 6 6 6 5 5 4 4 4 4 3
2 1 3 3 2 3 4 5 6 5 3 3 3 3 1 2 4 4 4 4 4 5 5 5 4 4 4 4 4 4 4 4 4 5 5 5 5 5 4 4 4 4 3 3
2 1 2 4 4 4 4 7 8 7 6 4 2 2 2 2 3 3 4 4 4 4 4 4 4 4 4 4 4 4 4 4 4 5 4 4 4 4 4 4 3 3 3 2
2 2 2 3 2 3 4 7 8 8 6 4 3 3 1 2 3 3 3 4 4 3 4 4 4 4 4 3 3 4 4 4 4 5 5 4 4 4 4 3 3 3 3 2
1 1 1 2 1 1 4 5 6 4 2 3 4 3 2 2 2 2 3 3 3 3 3 4 4 3 3 2 3 4 4 4 5 5 5 4 4 4 3 3 3 3 2 2
1 1 1 1 0 3 2 1 1 2 1 1 1 1 2 2 1 1 2 2 3 3 3 3 3 3 3 3 4 4 4 4 5 5 4 4 4 4 3 3 3 2 2 2
3 2 1 1 2 2 1 2 2 1 0 2 1 1 2 2 2 2 3 3 2 2 3 3 3 4 4 4 4 4 5 5 5 5 4 3 3 3 3 3 2 2 2 2
1 2 1 1 2 2 1 3 4 0 1 4 3 2 1 1 1 1 2 4 4 4 4 4 4 5 5 4 4 5 5 5 4 4 3 3 3 3 3 3 2 2 2 2
0 1 2 2 2 0 3 5 3 2 1 3 3 2 1 1 0 2 4 4 5 5 5 5 5 5 4 4 5 6 5 4 3 3 3 3 3 3 3 3 2 2 2 2
1 1 1 1 3 2 5 3 2 1 3 4 4 3 3 3 4 4 4 5 5 5 5 5 5 5 4 4 5 6 5 4 4 4 4 4 3 3 2 3 2 2 2 2
0 0 1 0 1 2 3 3 2 3 3 4 3 3 3 3 3 4 4 4 5 5 4 4 5 5 5 5 5 5 4 3 4 4 4 3 3 3 3 2 2 2 2 1
1 1 1 0 1 2 4 4 5 5 4 3 3 3 2 3 3 3 3 4 4 4 4 4 5 5 5 5 5 4 4 3 4 4 3 3 3 3 3 2 2 2 1 1
3 3 1 0 1 2 3 5 5 5 4 4 4 4 3 3 3 3 3 3 3 3 3 4 4 4 4 5 5 4 4 4 4 4 3 3 3 3 3 3 2 2 1 1
1 1 1 1 1 1 1 3 4 4 4 4 4 4 3 2 2 3 3 3 3 3 3 4 4 4 4 4 4 4 4 4 3 3 3 2 2 2 2 2 2 3 3 4
Wind_Direction
190 200 208 208 216 229 222 216 216 214 192 192 206 216 216 211 198 192 186 180 178 173 164 157 151 143 143 145 145 146 146 144 141 139 135 127 126 118 108 106 112 108 105 102
193 217 218 218 220 233 241 237 226 207 171 189 206 224 224 214 211 200 193 186 180 168 158 154 147 143 145 149 151 150 151 150 148 145 138 132 130 125 120 109 112 117 113 109
213 218 212 222 223 227 234 230 227 203 162 209 208 233 225 215 213 207 200 190 174 166 162 160 153 153 152 153 156 159 157 155 151 144 135 129 114 110 114 126 125 118 122 116
228 227 209 219 224 223 229 226 226 200 170 209 195 222 218 205 208 207 199 187 173 166 162 164 164 162 163 162 158 158 156 153 153 150 150 148 148 151 155 151 143 130 127 124
222 211 207 214 219 219 231 232 219 207 204 220 216 221 230 196 202 202 191 183 176 167 165 169 168 165 162 156 155 157 153 152 153 155 155 154 152 149 138 135 140 140 129 127
237 227 208 216 226 217 226 225 218 215 214 225 212 210 231 203 199 188 183 175 173 165 161 161 158 153 152 147 148 153 156 155 155 156 159 161 155 150 144 146 152 153 146 131
220 220 203 178 189 198 188 167 168 187 206 222 193 204 228 201 178 173 170 170 166 160 155 149 149 155 157 155 155 157 159 156 156 158 164 167 160 157 157 157 159 154 154 153
200 206 194 187 191 191 199 193 186 186 194 197 185 207 205 165 109 120 121 129 143 149 146 143 146 154 157 158 159 161 161 160 160 162 166 163 160 160 160 157 155 157 161 162
213 213 188 193 189 176 194 215 245 288 235 187 196 182 159 123 108 118 125 127 131 134 141 143 143 148 150 152 159 163 161 159 161 161 160 159 160 158 157 154 149 149 142 145
306 239 206 191 175 205 204 206 212 214 200 205 199 191 183 164 159 145 138 132 122 113 119 126 136 140 142 145 147 150 155 157 155 154 163 159 157 155 153 151 151 149 144 141
335 262 197 174 198 189 187 198 211 214 243 201 193 192 54 138 141 138 121 108 106 108 114 119 122 125 127 132 142 149 150 144 148 152 152 151 153 150 148 149 150 146 144 150
2 284 213 206 194 210 213 203 194 192 228 237 205 217 18 84 103 104 104 96 88 90 96 101 102 110 121 129 133 139 141 142 146 148 147 148 145 145 147 149 145 142 147 152
4 181 179 174 194 202 223 222 218 231 254 240 206 204 39 81 87 89 94 95 92 87 89 93 94 96 103 115 122 124 128 132 135 137 142 143 146 147 148 149 146 143 146 151
349 236 213 208 196 178 203 213 209 203 216 241 220 194 231 82 102 103 98 91 89 89 97 97 94 90 86 89 103 115 114 117 123 124 129 137 143 147 147 143 142 145 146 153
17 296 280 281 260 214 220 208 204 211 216 224 224 225 228 158 122 118 112 107 97 94 93 92 94 90 83 81 87 99 109 108 114 117 120 126 127 128 130 133 139 140 145 154
7 314 310 292 259 211 227 222 214 220 222 228 254 285 50 77 80 90 115 122 116 109 101 94 90 89 90 90 93 93 95 101 105 109 116 114 115 117 121 127 133 134 135 135
324 313 294 266 256 155 223 229 217 201 222 219 232 230 136 112 113 134 143 136 131 118 107 103 99 91 85 88 98 95 91 94 100 101 104 112 117 118 119 122 120 124 124 117
225 293 264 243 134 210 214 55 108 143 281 309 238 181 162 128 68 57 104 119 118 114 109 100 96 87 77 81 87 90 90 97 100 98 97 97 107 114 113 114 117 111 111 121
210 198 247 207 226 230 114 32 20 131 309 7 105 86 38 98 85 65 60 77 101 106 102 96 95 96 87 84 91 97 90 89 92 91 90 86 96 106 108 109 110 107 106 101
191 187 232 234 236 222 46 350 325 184 215 17 51 92 71 66 172 202 60 72 75 83 87 92 88 88 83 76 84 95 93 87 87 88 84 77 81 95 104 109 108 102 105 106
109 214 227 241 241 304 354 320 329 154 234 355 31 70 79 358 33 95 67 68 75 78 79 84 88 88 84 72 80 88 82 73 63 70 78 77 69 78 88 92 92 102 96 92
299 264 220 238 222 244 359 14 54 337 356 10 32 34 20 40 71 72 72 74 72 74 74 77 87 83 75 70 79 84 75 63 53 60 68 70 68 70 72 80 78 84 95 98
55 286 312 130 175 29 38 49 24 13 4 5 14 30 57 67 80 73 75 79 74 71 71 76 85 82 72 67 77 85 69 65 60 55 62 60 59 61 66 75 79 81 83 93
358 329 258 74 29 33 42 38 30 25 16 14 29 38 63 89 96 92 92 90 81 74 80 84 85 83 74 69 72 76 68 64 65 62 57 55 57 54 50 52 62 79 80 79
325 331 316 201 326 359 22 19 16 20 27 33 37 41 52 88 97 103 103 97 86 77 76 83 85 84 74 70 67 63 60 64 66 61 55 49 50 53 49 42 38 42 25 352
327 300 288 256 311 318 347 12 20 25 24 28 40 37 30 51 90 99 104 103 99 92 89 86 81 81 73 68 61 53 52 60 69 61 48 41 41 45 50 47 31 25 11 1
Height
1450 1453 1451 1450 1451 1451 1449 1451 1453 1452 1451 1456 1461 1463 1463 1463 1464 1466 1469 1472 1475 1478 1482 1485 1488 1491 1494 1497 1500 1503 1506 1510 1513 1516 1519 1522 1525 1528 1530 1533 1534 1536 1537 1538
1450 1448 1446 1448 1450 1451 1450 1450 1451 1450 1450 1455 1460 1462 1461 1461 1462 1464 1466 1469 1472 1476 1479 1482 1485 1488 1491 1494 1497 1501 1504 1507 1511 1514 1517 1521 1524 1526 1529 1531 1533 1534 1535 1536
1444 1443 1445 1447 1448 1450 1449 1450 1451 1452 1453 1454 1460 1464 1460 1458 1460 1461 1463 1466 1469 1472 1475 1479 1482 1485 1488 1491 1494 1498 1501 1505 1508 1512 1515 1518 1521 1524 1526 1529 1531 1532 1534 1535
1442 1441 1443 1445 1446 1448 1449 1446 1448 1450 1459 1462 1460 1469 1458 1455 1457 1457 1459 1462 1465 1469 1472 1476 1479 1482 1485 1488 1492 1495 1499 1502 1506 1509 1512 1515 1517 1520 1523 1526 1528 1530 1532 1533
1440 1439 1441 1444 1444 1447 1447 1446 1447 1451 1456 1461 1458 1464 1457 1450 1453 1454 1455 1459 1462 1466 1469 1472 1475 1479 1482 1485 1489 1492 1496 1499 1503 1506 1509 1512 1515 1518 1521 1524 1526 1528 1529 1531
1439 1439 1441 1442 1443 1446 1448 1449 1449 1451 1457 1465 1457 1460 1456 1448 1445 1448 1452 1456 1459 1463 1466 1469 1473 1476 1479 1482 1486 1489 1493 1496 1500 1503 1507 1510 1512 1515 1518 1520 1522 1525 1526 1528
1440 1440 1440 1442 1445 1446 1449 1454 1460 1463 1464 1459 1447 1453 1451 1441 1440 1443 1448 1452 1456 1460 1463 1466 1470 1473 1476 1479 1482 1486 1490 1493 1497 1501 1504 1507 1510 1512 1515 1517 1519 1521 1523 1525
1443 1443 1440 1440 1443 1446 1447 1449 1455 1457 1457 1451 1444 1449 1446 1440 1439 1442 1446 1450 1454 1458 1461 1464 1467 1470 1473 1476 1479 1483 1486 1490 1494 1498 1501 1504 1507 1510 1512 1514 1516 1518 1520 1522
1443 1442 1438 1438 1440 1444 1448 1448 1446 1449 1447 1449 1447 1442 1444 1441 1442 1443 1447 1450 1453 1456 1459 1462 1465 1468 1470 1473 1476 1480 1483 1487 1491 1494 1498 1501 1504 1507 1509 1511 1513 1515 1517 1519
1443 1445 1439 1439 1442 1443 1446 1447 1449 1453 1453 1449 1443 1441 1443 1443 1444 1445 1447 1450 1453 1456 1459 1461 1464 1466 1469 1471 1474 1478 1481 1484 1488 1491 1495 1498 1501 1504 1506 1508 1510 1512 1514 1515
1445 1447 1444 1442 1443 1444 1447 1449 1449 1450 1448 1449 1448 1446 1439 1440 1441 1445 1448 1451 1453 1456 1458 1460 1463 1465 1466 1469 1472 1475 1478 1481 1485 1488 1491 1495 1498 1500 1503 1505 1507 1509 1510 1512
1444 1447 1446 1443 1441 1442 1443 1445 1448 1452 1450 1445 1447 1453 1441 1441 1442 1445 1449 1452 1454 1456 1458 1460 1461 1463 1465 1467 1470 1472 1475 1478 1482 1485 1488 1491 1494 1497 1499 1502 1504 1505 1507 1509
1447 1450 1450 1448 1449 1447 1446 1445 1446 1449 1449 1448 1449 1453 1443 1442 1445 1448 1451 1453 1455 1457 1458 1459 1461 1462 1464 1466 1468 1471 1473 1476 1479 1482 1485 1488 1491 1494 1496 1498 1500 1502 1504 1505
1448 1450 1450 1447 1443 1444 1446 1446 1446 1450 1453 1449 1445 1449 1447 1447 1448 1450 1453 1454 1456 1457 1458 1459 1461 1462 1464 1465 1467 1469 1472 1474 1477 1479 1482 1485 1488 1490 1493 1495 1497 1499 1500 1501
1450 1450 1446 1443 1439 1440 1441 1443 1444 1447 1447 1449 1445 1446 1447 1448 1450 1452 1453 1455 1457 1458 1459 1459 1460 1462 1463 1464 1466 1468 1470 1473 1475 1477 1480 1483 1485 1488 1490 1492 1494 1496 1497 1498
1452 1452 1448 1443 1438 1439 1441 1440 1441 1443 1443 1444 1446 1448 1447 1449 1451 1453 1454 1456 1457 1459 1459 1460 1461 1462 1463 1464 1465 1467 1469 1472 1474 1476 1478 1481 1483 1485 1487 1489 1491 1492 1494 1495
1453 1454 1450 1445 1440 1441 1445 1443 1442 1442 1443 1444 1446 1449 1449 1451 1452 1453 1455 1456 1457 1458 1459 1460 1460 1461 1462 1464 1465 1467 1469 1471 1473 1475 1477 1479 1481 1482 1484 1486 1488 1489 1490 1491
1455 1454 1452 1447 1446 1449 1448 1443 1443 1444 1446 1446 1447 1448 1450 1452 1453 1454 1455 1456 1457 1458 1459 1459 1460 1461 1462 1464 1465 1467 1469 1470 1472 1474 1475 1477 1479 1480 1482 1483 1485 1486 1487 1488
1451 1454 1451 1450 1448 1445 1446 1446 1446 1447 1450 1449 1449 1450 1451 1452 1453 1455 1456 1456 1457 1458 1458 1459 1460 1461 1462 1463 1465 1466 1468 1470 1471 1473 1474 1476 1477 1478 1480 1481 1482 1483 1484 1485
1450 1452 1453 1448 1448 1446 1451 1449 1447 1449 1452 1452 1451 1451 1452 1452 1454 1456 1456 1456 1456 1457 1458 1458 1459 1460 1462 1463 1464 1466 1467 1469 1471 1472 1473 1475 1476 1477 1478 1479 1480 1481 1482 1483
1453 1453 1452 1450 1451 1451 1455 1450 1448 1454 1456 1454 1453 1453 1453 1453 1455 1455 1455 1455 1456 1456 1457 1458 1459 1460 1461 1462 1464 1465 1467 1469 1470 1471 1473 1474 1475 1476 1477 1477 1478 1479 1480 1481
1457 1455 1454 1452 1452 1457 1456 1453 1455 1457 1455 1454 1453 1454 1454 1453 1453 1453 1454 1455 1455 1456 1457 1458 1459 1460 1461 1462 1464 1465 1466 1468 1470 1471 1471 1472 1473 1474 1475 1476 1477 1477 1478 1478
1458 1459 1457 1458 1461 1459 1457 1456 1456 1455 1455 1454 1454 1454 1454 1453 1454 1454 1455 1455 1456 1456 1457 1458 1459 1460 1461 1462 1464 1465 1466 1467 1469 1470 1470 1471 1472 1473 1473 1474 1475 1475 1476 1476
1458 1457 1457 1458 1458 1457 1457 1456 1456 1455 1455 1454 1454 1454 1454 1454 1454 1455 1455 1455 1456 1457 1458 1458 1459 1460 1461 1462 1464 1464 1465 1467 1468 1469 1470 1470 1471 1471 1472 1473 1473 1473 1474 1474
1462 1459 1459 1459 1459 1457 1457 1457 1456 1456 1455 1454 1454 1454 1454 1454 1454 1455 1455 1456 1457 1457 1458 1459 1460 1460 1461 1462 1463 1464 1465 1466 1467 1468 1469 1469 1470 1470 1471 1471 1472 1472 1472 1473
1462 1463 1462 1461 1460 1459 1459 1457 1457 1456 1455 1454 1454 1453 1454 1454 1454 1454 1455 1456 1457 1458 1459 1459 1460 1461 1462 1463 1463 1464 1465 1466 1466 1467 1467 1468 1468 1469 1469 1470 1470 1471 1471 1471